Karlovy Vary, Czech Republic

9:37 PM CET on March 24, 2017 (GMT +0100)
Karlovy Vary

Weather History for LKKV - March, 2013

Change the Weather History Date:

Saturday, March 30, 2013

  Actual Average (EDQM) Record (EDQM)
Temperature  
Mean Temperature 32 °F -  
Max Temperature 37 °F 50 °F 66 °F (2014)
Min Temperature 26 °F 34 °F 26 °F (2013)
Degree Days  
Heating Degree Days 34    
Moisture  
Dew Point 23 °F    
Average Humidity 72    
Maximum Humidity 93    
Minimum Humidity 52    
Precipitation  
Precipitation 0.00 in - - ()
Sea Level Pressure  
Sea Level Pressure 29.62 in    
Wind  
Wind Speed 3 mph ()    
Max Wind Speed 9 mph    
Max Gust Speed 21 mph    
Visibility 3.7 miles    
Events Snow    
Averages and records for this station are not official NWS values.
T = Trace of Precipitation, MM = Missing Value Source: Averaged Metar Reports

Daily Weather History Graph

Daily Weather History Graph

Search for Another Location

Airport or City:

Trip Planner

Search our weather history database for the weather conditions in past years. The results will help you decide how hot, cold, wet, or windy it might be!

Date:

Astronomy

Mar. 30, 2013 Rise Set
Actual Time 5:49 AM CET 6:37 PM CET
Civil Twilight 5:16 AM CET 7:10 PM CET
Nautical Twilight 4:37 AM CET 7:49 PM CET
Astronomical Twilight 3:55 AM CET 8:31 PM CET
Moon 10:49 PM CET (3/30) 7:09 AM CET (3/30)
Length of Visible Light 13h 53m
Length of Day
12h 48m
Waning Gibbous, 88% of the Moon is Illuminated
Mar 30
Waning Gibbous
Apr 3
Last Quarter
Apr 10
New
Apr 18
First Quarter
Apr 25
Full

Hourly Weather History & Observations

Time (CET) Temp. Windchill Dew Point Humidity Pressure Visibility Wind Dir Wind Speed Gust Speed Precip Events Conditions
12:00 AM 28.4 °F - 23.0 °F 80% 29.65 in 3.1 mi Calm Calm - N/A Snow Light Snow Showers
1:00 AM 28.4 °F - 23.0 °F 80% 29.65 in 3.7 mi Variable 2.3 mph - N/A   Mostly Cloudy
2:00 AM 28.4 °F - 23.0 °F 80% 29.62 in 3.1 mi Calm Calm - N/A   Overcast
3:00 AM 28.4 °F - 24.8 °F 86% 29.62 in 3.1 mi East 2.3 mph - N/A   Overcast
4:00 AM 28.4 °F - 24.8 °F 86% 29.62 in 3.1 mi East 2.3 mph - N/A   Overcast
5:00 AM 28.4 °F - 24.8 °F 86% 29.62 in 3.1 mi Variable 1.2 mph - N/A   Overcast
6:00 AM 26.6 °F - 24.8 °F 93% 29.62 in 1.9 mi East 1.2 mph - N/A   Overcast
7:00 AM 28.4 °F - 24.8 °F 86% 29.62 in 1.9 mi Calm Calm - N/A Snow Light Snow
7:30 AM 28.4 °F - 24.8 °F 86% 29.62 in 1.9 mi ESE 2.3 mph - N/A Snow Light Snow
8:00 AM 30.2 °F - 24.8 °F 80% 29.62 in 1.9 mi East 2.3 mph - N/A Snow Light Snow
8:30 AM 30.2 °F - 24.8 °F 80% 29.62 in 1.9 mi Variable 1.2 mph - N/A Snow Light Snow
9:00 AM 30.2 °F - 24.8 °F 80% 29.62 in 1.9 mi Calm Calm - N/A Snow Light Snow
9:30 AM 32.0 °F 28.7 °F 24.8 °F 75% 29.62 in 1.9 mi NNW 3.5 mph - N/A   Mostly Cloudy
10:00 AM 32.0 °F 28.7 °F 24.8 °F 75% 29.62 in 2.2 mi NW 3.5 mph - N/A   Mostly Cloudy
10:30 AM 32.0 °F 28.7 °F 23.0 °F 69% 29.62 in 2.8 mi NNW 3.5 mph - N/A   Mostly Cloudy
11:00 AM 33.8 °F - 21.2 °F 60% 29.62 in 4.3 mi Variable 2.3 mph - N/A   Mostly Cloudy
11:30 AM 33.8 °F - 17.6 °F 52% 29.62 in 5.0 mi Variable 2.3 mph - N/A   Mostly Cloudy
12:00 PM 33.8 °F - 19.4 °F 56% 29.62 in 5.6 mi Variable 2.3 mph - N/A   Mostly Cloudy
12:30 PM 35.6 °F - 21.2 °F 56% 29.62 in 6.2 mi Variable 2.3 mph - N/A   Mostly Cloudy
1:00 PM 35.6 °F 30.7 °F 21.2 °F 56% 29.62 in 4.3 mi Variable 5.8 mph - N/A   Mostly Cloudy
1:30 PM 35.6 °F 29.9 °F 23.0 °F 60% 29.59 in 4.3 mi NNE 6.9 mph - N/A   Scattered Clouds
2:00 PM 37.4 °F 33.8 °F 23.0 °F 56% 29.59 in 3.7 mi NNE 4.6 mph - N/A   Mostly Cloudy
2:30 PM 35.6 °F 31.7 °F 21.2 °F 56% 29.59 in 5.0 mi Variable 4.6 mph - N/A   Mostly Cloudy
3:00 PM 37.4 °F 33.8 °F 21.2 °F 52% 29.59 in 5.0 mi Variable 4.6 mph - N/A   Mostly Cloudy
3:30 PM 37.4 °F 32.8 °F 23.0 °F 56% 29.59 in 5.0 mi ENE 5.8 mph - N/A   Mostly Cloudy
4:00 PM 35.6 °F 28.6 °F 24.8 °F 65% 29.59 in 3.7 mi NE 9.2 mph 20.7 mph N/A   Mostly Cloudy
4:30 PM 33.8 °F 27.0 °F 24.8 °F 70% 29.59 in 3.7 mi NE 8.1 mph - N/A   Mostly Cloudy
5:00 PM 33.8 °F 26.4 °F 24.8 °F 70% 29.59 in 3.7 mi NE 9.2 mph - N/A   Mostly Cloudy
5:30 PM 33.8 °F 27.0 °F 24.8 °F 70% 29.59 in 3.1 mi NE 8.1 mph - N/A   Mostly Cloudy
6:00 PM 32.0 °F 24.2 °F 24.8 °F 75% 29.59 in 3.1 mi NE 9.2 mph - N/A   Mostly Cloudy
6:30 PM 32.0 °F 24.8 °F 24.8 °F 75% 29.62 in 3.1 mi NE 8.1 mph - N/A   Mostly Cloudy
7:00 PM 30.2 °F 24.3 °F 24.8 °F 80% 29.62 in 3.7 mi North 5.8 mph - N/A   Mostly Cloudy
7:30 PM 30.2 °F 24.3 °F 23.0 °F 75% 29.62 in 4.3 mi NNE 5.8 mph - N/A   Mostly Cloudy
8:00 PM 30.2 °F 22.6 °F 23.0 °F 75% 29.65 in 5.0 mi NNE 8.1 mph - N/A   Mostly Cloudy
8:30 PM 30.2 °F 22.6 °F 21.2 °F 69% 29.65 in 5.0 mi NE 8.1 mph - N/A   Mostly Cloudy
9:00 PM 30.2 °F 24.3 °F 21.2 °F 69% 29.65 in 5.6 mi NNE 5.8 mph - N/A   Mostly Cloudy
9:30 PM 28.4 °F 22.2 °F 21.2 °F 74% 29.65 in 5.0 mi ENE 5.8 mph - N/A   Mostly Cloudy
10:00 PM 28.4 °F 22.2 °F 21.2 °F 74% 29.65 in 5.0 mi North 5.8 mph - N/A   Mostly Cloudy
11:00 PM 28.4 °F 22.2 °F 21.2 °F 74% 29.68 in 4.3 mi ENE 5.8 mph - N/A   Overcast